Flight Track Log - Related Links

Times and Time Zones

All times are in EDT time to prevent confusion due to time zone crossing. See the FLG3776 flight status page for this flight to view local times or setup timezone preferences in your user account.

Time Position Orientation Groundspeed Altitude Reporting Facility
EDT Latitude Longitude Course Direction KTS MPH feet Rate Location/Type
09:02PM 44.9167 -93.2500 90° East 169 194 3,300  Level Minneapolis TRACON
09:03PM 44.9392 -93.2431 12° North 171 197 4,300 2,022 Climbing Minneapolis Center
09:04PM 44.7575 -92.8072 110° East  Level Estimated
09:04PM 44.9936 -93.2083 24° Northeast 219 252 6,300  Level Minneapolis Center
09:05PM 44.7157 -92.6694 118° Southeast  Level Estimated
09:05PM 45.0269 -93.1014 66° East 277 319 7,000  Level Minneapolis Center
09:06PM 44.6595 -92.5423 122° Southeast  Level FlightAware Approximate
09:06PM 45.0319 -92.9908 86° East 281 323 9,600  Level Minneapolis Center
09:07PM 44.6167 -92.3956 90° East  Level FlightAware Approximate
09:07PM 44.9864 -92.8994 125° Southeast 300 345 10,800  Level Minneapolis Center
09:08PM 44.9242 -92.8019 132° Southeast 330 380 12,900 1,839 Climbing Minneapolis Center
09:09PM 44.8739 -92.6825 121° Southeast 351 404 14,600 1,403 Climbing Minneapolis Center
09:10PM 44.8225 -92.5653 122° Southeast 351 404 15,800 1,065 Climbing Minneapolis Center
09:11PM 44.7578 -92.4158 121° Southeast 373 429 16,800 968 Climbing Minneapolis Center
09:12PM 44.7033 -92.2878 121° Southeast 381 438 17,800 823 Climbing Minneapolis Center
09:13PM 44.6542 -92.1542 117° Southeast 384 442 18,500 726 Climbing Minneapolis Center
09:14PM 44.6047 -92.0228 118° Southeast 383 441 19,300 823 Climbing Minneapolis Center
09:15PM 44.5536 -91.8883 118° Southeast 388 447 20,200 968 Climbing Minneapolis Center
09:16PM 44.5039 -91.7553 118° Southeast 387 445 21,300 1,210 Climbing Minneapolis Center
09:17PM 44.4431 -91.5931 118° Southeast 393 452 22,700 823 Climbing Minneapolis Center
09:18PM 44.3914 -91.4578 118° Southeast 394 453 23,000 581 Climbing Minneapolis Center
09:19PM 44.3383 -91.3161 118° Southeast 407 468 23,900 677 Climbing Minneapolis Center
09:20PM 44.2858 -91.1794 118° Southeast 413 475 24,400 484 Climbing Minneapolis Center
09:21PM 44.2314 -91.0353 118° Southeast 419 482 24,900 629 Climbing Minneapolis Center
09:22PM 44.1647 -90.8628 118° Southeast 424 488 25,700 726 Climbing Minneapolis Center
09:23PM 44.1092 -90.7192 118° Southeast 424 488 26,400 677 Climbing Minneapolis Center
09:24PM 44.0536 -90.5767 118° Southeast 423 487 27,100 683 Climbing Minneapolis Center
09:25PM 43.9961 -90.4147 116° Southeast 423 487 27,800 732 Climbing Minneapolis Center
09:26PM 43.9467 -90.2681 115° Southeast 420 483 28,600 629 Climbing Minneapolis Center
09:27PM 43.8975 -90.1228 115° Southeast 418 481 29,100 537 Climbing Minneapolis Center
09:28PM 43.8567 -90.0022 115° Southeast 416 479 29,700 683 Climbing Minneapolis Center
09:30PM 43.7997 -89.8339 115° Southeast 413 475 30,500 629 Climbing Minneapolis Center
09:31PM 43.7522 -89.6892 114° Southeast 413 475 31,000 242 Climbing Minneapolis Center
09:32PM 43.6964 -89.5211 115° Southeast 412 474 31,000  Level Minneapolis Center
09:33PM 43.6453 -89.3731 115° Southeast 423 487 31,000  Level Minneapolis Center
09:33PM 43.6192 -89.2983 116° Southeast 429 494 31,000  Level Chicago Center
09:34PM 43.5672 -89.1492 116° Southeast 431 496 31,000  Level Chicago Center
09:35PM 43.5061 -88.9753 116° Southeast 433 498 31,000  Level Chicago Center
09:36PM 43.4547 -88.8300 116° Southeast 428 493 31,000  Level Chicago Center
09:37PM 43.4028 -88.6842 116° Southeast 427 491 31,000  Level Chicago Center
09:38PM 43.3508 -88.5411 116° Southeast 428 493 31,000  Level Chicago Center
09:39PM 43.3000 -88.3958 116° Southeast 431 496 31,000  Level Chicago Center
09:40PM 43.2403 -88.2275 116° Southeast 424 488 31,000 -390 Level Chicago Center
09:41PM 43.1892 -88.0836 116° Southeast 423 487 30,200 -1,113 Descending Chicago Center
09:42PM 43.1347 -87.9372 117° Southeast 430 495 28,700 -1,366 Descending Chicago Center
09:43PM 43.0825 -87.7919 116° Southeast 428 493 27,400 -1,220 Descending Chicago Center
09:44PM 43.0311 -87.6500 116° Southeast 419 482 26,200 -1,122 Descending Chicago Center
09:46PM 42.9803 -87.5111 117° Southeast 410 472 25,100 -1,171 Descending Chicago Center
09:47PM 42.9269 -87.3661 117° Southeast 407 468 23,800 -1,210 Descending Chicago Center
09:48PM 42.8769 -87.2300 117° Southeast 401 461 22,600 -1,171 Descending Chicago Center
09:49PM 42.8256 -87.0939 117° Southeast 405 466 21,400 -780 Descending Chicago Center
09:50PM 42.7742 -86.9597 118° Southeast 404 465 21,000 -585 Descending Chicago Center
09:51PM 42.7164 -86.8019 116° Southeast 393 452 20,200 -927 Descending Chicago Center
09:52PM 42.6661 -86.6719 118° Southeast 391 450 19,100 -1,171 Descending Chicago Center
09:53PM 42.6167 -86.5414 117° Southeast 392 451 17,800 -1,220 Descending Chicago Center
09:54PM 42.5672 -86.4144 118° Southeast 384 442 16,600 -1,512 Descending Chicago Center
09:55PM 42.5217 -86.2922 117° Southeast 371 427 14,700 -1,902 Descending Chicago Center
09:56PM 42.4744 -86.1731 118° Southeast 363 418 12,700 -1,463 Descending Chicago Center
09:57PM 42.4297 -86.0561 117° Southeast 355 409 11,700 -1,033 Descending Chicago Center
09:58PM 42.3867 -85.9414 117° Southeast 289 333 10,600 -1,707 Descending Chicago Center
09:59PM 42.3533 -85.8586 119° Southeast 262 302 8,200 -1,854 Descending Chicago Center
10:00PM 42.3325 -85.7731 108° East 245 282 6,800 -1,512 Descending Chicago Center
10:01PM 42.3419 -85.6964 81° East 219 252 5,100 -1,659 Descending Chicago Center
10:02PM 42.3483 -85.6214 83° East 207 238 3,400 -1,672 Descending Chicago Center

Login

Don't have an account? Register now (free) for customized features, flight alerts, and more!